Location: Unspecified
(34.4950°S, 58.5160°W)
Time: 14:37:41
(UTC+00:00)

Cosmos 1655 Rocket - Pass Details

Date: 05 July 2022
Orbit: 971 x 1005 km, 83.0° (Epoch: 11 August)

Event Time Altitude Azimuth Distance (km) Brightness Sun altitude
Rises 00:40:48 0° 302° (WNW) 3,726 7.6 -45.5°
Reaches altitude 10° 00:45:04 10° 275° (W) 2,790 6.9 -46.4°
Maximum altitude 00:47:48 13° 249° (WSW) 2,589 6.7 -46.9°
Drops below altitude 10° 00:50:33 10° 224° (SW) 2,804 6.7 -47.5°
Enters shadow 00:50:55 - 221° (SW) 2,860 6.8 -47.6°
